Meteo Giornale » Osservazioni meteo Francia » Dole Tavaux

ore: 08:00 - Osservazioni Meteo Dole Tavaux
Lat. 47° 2' N Lon. 5° 26' E Alt. 196 metri s.l.m.

sereno

15 °C

Sereno

Temp. 24 Ore

13 °C

26 °C

Nord

3.7 Km/h

Dew point 14 °C

Umidità 93 %

Visibilità  10 Km

Il sole sorge alle ore 06:57

Il sole tramonta alle ore 20:18

Data e Ora Cielo e Fenomeni T °C DP °C Um. % Pres. hPa Vis. km Vento km/h
Oggi h: 08:00 sereno Sereno 15 14 93 1022 10 N 3.7
Oggi h: 07:30 sereno Sereno 13 12 93 1022 10 N 5.5
Oggi h: 07:00 sereno Sereno 13 12 93 1022 10 N 5.5
Oggi h: 06:30 sereno Sereno 13 12 93 1022 10 N 5.5
Oggi h: 06:00 sereno Sereno 13 13 100 1022 10 N 5.5
Oggi h: 05:30 sereno Sereno 13 12 93 1022 10 N 5.5
Oggi h: 05:00 sereno Sereno 14 12 87 1022 10 N 5.5
Oggi h: 04:30 sereno Sereno 14 13 93 1022 10 N 3.7
Oggi h: 04:00 sereno Sereno 14 13 93 1022 10 E/NE 7.4
Oggi h: 03:30 sereno Sereno 14 12 87 1022 10 N 5.5
Oggi h: 03:00 sereno Sereno 14 13 93 1022 10 N 3.7
Oggi h: 02:30 sereno Sereno 15 14 93 1022 10 N 1.8
Oggi h: 02:00 sereno Sereno 15 13 87 1022 10 N 3.7
Oggi h: 01:30 sereno Sereno 15 13 87 1022 10 E/SE 7.4
Oggi h: 01:00 sereno Sereno 16 13 82 1022 10 N 3.7
Oggi h: 00:30 sereno Sereno 18 13 72 1022 10 O 9.3
Oggi h: 00:00 sereno Sereno 19 13 68 1022 10 O 7.4
Ieri h: 23:30 sereno Sereno 19 13 68 1022 10 O/SO 9.3
Ieri h: 23:00 sereno Sereno 20 13 64 1022 10 O/SO 11.1
Ieri h: 22:30 sereno Sereno 21 13 60 1021 10 O/SO 9.3
Ieri h: 22:00 sereno Sereno 21 13 60 1021 10 N 5.5
Ieri h: 21:30 sereno Sereno 20 13 64 1021 10 O 9.3
Ieri h: 21:00 sereno Sereno 21 13 60 1020 10 O/SO 7.4
Ieri h: 20:30 sereno Sereno 23 12 49 1020 10 O/SO 9.3
Ieri h: 20:00 sereno Sereno 24 12 47 1020 10 SO 11.1
Ieri h: 19:30 sereno Sereno 25 11 41 1020 10 SO 16.7
Ieri h: 19:00 sereno Sereno 25 11 41 1019 10 SO 24
Ieri h: 18:30 poco_nuvoloso Poco Nuvoloso 25 11 41 1019 10 SO 27.8
Ieri h: 18:00 sereno Sereno 26 11 39 1020 10 SO 27.8
Ieri h: 17:30 sereno Sereno 26 11 39 1020 10 SO 25.9
Ieri h: 17:00 sereno Sereno 26 11 39 1020 10 SO 25.9
Ieri h: 16:30 sereno Sereno 25 12 44 1020 10 SO 25.9
Ieri h: 16:00 sereno Sereno 25 12 44 1020 10 SO 27.8
Ieri h: 15:30 sereno Sereno 25 12 44 1020 10 SO 31.5
Ieri h: 15:00 nuvoloso Nuvoloso 24 12 47 1020 10 O/SO 25.9
Ieri h: 14:30 molto_nuvoloso Molto Nuvoloso 24 13 50 1020 10 O/SO 27.8
Ieri h: 14:00 molto_nuvoloso Molto Nuvoloso 23 12 49 1020 10 O/SO 27.8
Ieri h: 13:30 molto_nuvoloso Molto Nuvoloso 23 13 53 1020 10 O/SO 29.6
Ieri h: 13:00 molto_nuvoloso Molto Nuvoloso 23 14 56 1020 10 SO 31.5
Ieri h: 12:30 molto_nuvoloso Molto Nuvoloso 22 14 60 1020 10 O/SO 27.8
Ieri h: 12:00 coperto Coperto 20 15 72 1020 10 S/SO 18.5
Ieri h: 11:30 coperto Coperto 20 14 68 1020 10 SO 25.9
Ieri h: 11:00 coperto Coperto 21 14 64 1020 10 SO 22.2
Ieri h: 10:30 molto_nuvoloso Molto Nuvoloso 20 15 72 1020 10 S/SO 20.3
Ieri h: 10:00 poco_nuvoloso Poco Nuvoloso 19 15 77 1020 10 S/SO 14.8
Ieri h: 09:30 poco_nuvoloso Poco Nuvoloso 18 15 82 1020 10 S 16.7
Ieri h: 09:00 poco_nuvoloso Poco Nuvoloso 18 15 82 1020 10 S 14.8